Weather observations for the past three days for
Beef Island
Imperial (Metric)
Date Time (ast) Wind (mph) Vis. (mi.) Weather Sky Cond. Temperature (ºF) Relative Humidity Wind Chill (°F) Heat Index (°F) Pressure Precipitation (in)
Air Dwpt 6 hour altimeter (in) sea level (mb) 1 hr 3 hr 6 hr
Max. Min.
05 22:00 E 9 10.00 Partly Cloudy SCT022 82.4 73.4 74% 88 30.06 0.0
05 21:00 E 7 10.00 A Few Clouds FEW021 82.4 73.4 74% 88 30.05 0.0
05 20:00 E 7 10.00 Partly Cloudy FEW020 SCT038 82.4 73.4 74% 88 30.04 0.0
05 19:00 E 8 10.00 Partly Cloudy FEW019 SCT036 80.6 73.4 79% 85 30.02 0.0
05 18:00 E 9 10.00 Partly Cloudy FEW019 SCT036 82.4 73.4 74% 88 30.01 0.0
05 17:00 E 8 10.00 A Few Clouds FEW020 84.2 73.4 70% 91 30.01 0.0
05 16:00 E 10 10.00 A Few Clouds FEW020 84.2 75.2 74% 92 30.01 0.0
05 15:00 E 12 10.00 Partly Cloudy SCT020 84.2 75.2 74% 92 30.02 0.0
05 14:00 E 12 10.00 Mostly Cloudy BKN020 86 75.2 70% 95 30.03 0.0
05 13:00 SE 13 10.00 Mostly Cloudy BKN021 87.8 75.2 66% 98 30.04 0.0
05 12:00 E 12 10.00 Showers in Vicinity SCT021 86 75.2 70% 95 30.05 0.0
05 11:00 E 12 10.00 Partly Cloudy SCT021 86 75.2 70% 95 30.06 0.0
05 10:00 E 13 10.00 Partly Cloudy SCT021 86 73.4 66% 93 30.06 0.0
05 09:00 E 13 10.00 Partly Cloudy SCT019 SCT048 84.2 75.2 74% 92 30.05 0.0
05 08:00 E 13 10.00 Partly Cloudy BKN019 SCT048 84.2 75.2 74% 92 30.03 0.0
05 07:00 E 9 10.00 Mostly Cloudy SCT019 BKN048 82.4 75.2 79% 89 30.01 0.0
04 22:00 E 8 10.00 A Few Clouds FEW020 80.6 75.2 84% 86 30.02 0.0
04 21:00 E 8 10.00 A Few Clouds FEW020 80.6 75.2 84% 86 30.01 0.0
04 20:00 E 8 10.00 A Few Clouds FEW020 80.6 73.4 79% 85 29.99 0.0
04 19:00 E 9 10.00 Partly Cloudy FEW018 SCT042 82.4 73.4 74% 88 29.98 0.0
04 18:00 E 8 10.00 Light Showers Rain BKN018 82.4 73.4 74% 88 29.97 0.0
04 17:00 E 9 10.00 Showers in Vicinity BKN018 84.2 73.4 70% 91 29.95 0.0
04 16:00 E 13 10.00 Partly Cloudy SCT018 84.2 75.2 74% 92 29.96 0.0
04 15:00 E 10 10.00 Mostly Cloudy BKN019 84.2 73.4 70% 91 29.97 0.0
04 14:00 E 12 10.00 Mostly Cloudy BKN019 84.2 75.2 74% 92 29.98 0.0
04 13:00 SE 12 10.00 Mostly Cloudy BKN019 86 73.4 66% 93 30 0.0
04 12:00 E 13 10.00 Mostly Cloudy BKN019 86 75.2 70% 95 30.02 0.0
04 11:00 E 9 10.00 Mostly Cloudy BKN019 86 73.4 66% 93 30.03 0.0
04 10:00 E 9 10.00 Mostly Cloudy BKN019 84.2 75.2 74% 92 30.04 0.0
04 09:00 E 10 10.00 Partly Cloudy SCT019 84.2 75.2 74% 92 30.04 0.0
04 08:00 E 9 10.00 Partly Cloudy SCT019 82.4 73.4 74% 88 30.03 0.0
04 07:00 E 8 10.00 A Few Clouds FEW019 80.6 73.4 79% 85 30.01 0.0
03 22:00 E 9 10.00 Partly Cloudy SCT019 80.6 73.4 79% 85 30.03 0.0
03 21:00 E 8 10.00 Partly Cloudy SCT019 80.6 73.4 79% 85 30.02 0.0
03 20:00 E 8 10.00 Mostly Cloudy BKN019 80.6 73.4 79% 85 30.01 0.0
03 19:00 E 8 10.00 Partly Cloudy SCT020 80.6 73.4 79% 85 29.99 0.0
03 18:00 E 8 10.00 Partly Cloudy SCT020 82.4 71.6 70% 87 29.98 0.0
03 17:00 E 7 10.00 Partly Cloudy SCT023 84.2 71.6 66% 90 29.98 0.0
03 16:00 E 8 10.00 Partly Cloudy SCT023 86 71.6 62% 92 29.99 0.0
03 15:00 E 8 10.00 A Few Clouds FEW025 84.2 71.6 66% 90 29.99 0.0
03 14:00 SE 8 10.00 Partly Cloudy SCT025 86 71.6 62% 92 30.01 0.0
03 13:00 SE 10 10.00 Partly Cloudy SCT023 84.2 71.6 66% 90 30.03 0.0
03 12:00 E 12 10.00 A Few Clouds FEW021 86 71.6 62% 92 30.05 0.0
03 11:00 SE 8 10.00 Partly Cloudy SCT021 86 73.4 66% 93 30.06 0.0
03 10:00 Calm 10.00 Mostly Cloudy BKN018 84.2 73.4 70% 91 30.06 0.0
03 09:00 E 10 10.00 Mostly Cloudy BKN019 82.4 73.4 74% 88 30.06 0.0
03 08:00 E 10 10.00 Partly Cloudy SCT021 82.4 73.4 74% 88 30.04 0.0
03 07:00 E 9 10.00 A Few Clouds FEW020 80.6 73.4 79% 85 30.03 0.0
Date Time (ast) Wind (mph) Vis. (mi.) Weather Sky Cond. Air Dwpt Max. Min. Relative Humidity Wind Chill (°F) Heat Index (°F) altimeter (in) sea level (mb) 1 hr 3 hr 6 hr
6 hour
Temperature (ºF) Pressure Precipitation (in)